Skip Page Navigation
NASA JPL Caltech
NASA Logo - Jet Propulsion Laboratory + View the NASA Portal
+ Near-Earth Object (NEO) Project
Search JPL
JPL Home Earth Solar System Stars & Galaxies Technology
JPL Solar System Dynamics
BODIES ORBITS EPHEMERIDES TOOLS PHYSICAL DATA DISCOVERY FAQ SITE MAP
JPL Small-Body Database Browser
Search: [ help ]  
18745 San Pedro (1999 BJ14)
Classification: Main-belt Asteroid          SPK-ID: 2018745
Ephemeris | Orbit Diagram | Orbital Elements | Physical Parameters | Discovery Circumstances ]

[ show orbit diagram ]
Orbital Elements at Epoch 2455200.5 (2010-Jan-04.0) TDB
Reference: MPO110579 (heliocentric ecliptic J2000)
 Element Value Uncertainty (1-sigma)   Units 
e 0.1030860 n/a  
a 2.6003107 n/a AU
q 2.3322551 n/a AU
i 15.00634 n/a deg
node 166.11167 n/a deg
peri 237.23086 n/a deg
M 352.01865 n/a deg
tp 2455234.4555017
(2010-Feb-06.95550170)
n/a JED
period 1531.5680423
4.19
n/a
n/a
d
yr
n 0.23505322 n/a deg/d
Q 2.8683663 n/a AU
  Orbit Determination Parameters
   # obs. used (total)      334  
   first obs. used      1955-??-??  
   last obs. used      2006-11-17  
   # oppositions      9  
   planetary ephem.      DE403  
   quality code      0  
   fit RMS      0.52  
   data source      MPC:mpn  
   producer      MPC  

Additional Information
 T_jup = 3.359 

Ephemeris | Orbit Diagram | Orbital Elements | Physical Parameters | Discovery Circumstances ]

Physical Parameter Table
Parameter Symbol Value Units Sigma Reference Notes
absolute magnitude H 12.6 mag n/a PDS3 (MPO 5282)  

18745 San Pedro           Discovered 1999 Jan. 23 by the OCA-DLR Asteroid Survey at Caussols.
San Pedro de Atacama, a town in Chile's region II, was inhabited by the Likan Antay population for thousands of years. Famous for its beautiful natural sites, it is now one of the most visited places in the country. The ALMA observatory and many other astronomical projects will be soon installed near San Pedro.
NOTE: some special characters may not display properly (any characters within {} are an attempt to place the proper accent above a character)
Reference: 20030614/MPCPages.arcLast Updated: 2005-04-26

Alternate Designations
 1999 BJ14 = 1991 JO2 
Ephemeris | Orbit Diagram | Orbital Elements | Physical Parameters | Discovery Circumstances ]
ABOUT SSD CREDITS/AWARDS PRIVACY/COPYRIGHT GLOSSARY LINKS
FirstGov 2010-Feb-10 06:54 UT
(server date/time)  
NASA Home Page
Site Manager:   Donald K. Yeomans
Webmaster  Alan B. Chamberlin